Location: Hausen
(51.3804°N, 10.3782°E)
Time: 14:14:28
(UTC+00:00)

Daily predictions for brighter satellites

Satellite Brightness Start Highest point End
(mag) Time Altitude Azimuth Time Altitude Azimuth Time Altitude Azimuth
Cosmos 1656 4.4 15:43:44 10° NW 15:49:11 60° WSW 15:54:41 10° SSE
Meteor 1-20 Rocket 4.4 15:43:44 10° N 15:49:31 60° ENE 15:55:18 10° SSE
Cosmos 1340 Rocket 2.8 15:45:27 10° N 15:49:34 76° ENE 15:53:38 10° SSE
Cosmos 2360 Rocket 3.8 15:48:04 10° N 15:51:24 16° NNE 15:54:43 10° ENE
CZ-4C R/B 3.2 15:50:45 10° NNE 15:54:38 71° ESE 15:58:15 10° S
Cosmos 1842 Rocket 3.6 15:50:23 10° S 15:54:50 75° E 15:59:21 10° NNE
ERBS 3.0 15:52:07 10° W 15:55:09 38° NNW 15:58:11 10° NE
Cosmos 540 Rocket 4.2 15:51:19 10° SSE 15:55:51 33° ESE 16:00:25 10° NE
SL-16 R/B 4.2 15:51:30 10° N 15:56:44 29° NW 16:01:57 10° WSW
Lacrosse 5 rocket 1.5 15:54:56 10° WNW 15:58:39 48° NNE 16:02:34 10° E
ATLAS CENTAUR R/B 3.1 15:56:34 10° W 16:00:13 25° NNW 16:04:06 10° NNE
Cosmos 1092 Rocket 4.1 15:55:23 10° N 16:01:40 58° ENE 16:07:54 10° SSE
Cosmos 1666 4.0 16:00:21 10° NNE 16:03:07 19° ENE 16:05:53 10° ESE
USA 308 3.1 15:59:38 10° W 16:03:52 60° N 16:08:04 10° E
MOS 1 Rocket 4.0 16:00:15 10° N 16:05:12 60° WNW 16:09:50 10° SSW
COSMOS 2455 3.6 16:02:39 10° S 16:08:04 36° ESE 16:13:30 10° NE
Spot 1 4.4 16:05:59 10° NNE 16:10:41 63° ESE 16:15:37 10° S
Cosmos 2322 Rocket 3.3 16:08:52 10° NNW 16:13:27 24° NE 16:18:01 10° E
Cosmos 1697 Rocket 3.0 16:07:53 10° NNW 16:13:31 73° WSW 16:19:06 10° SSE
CZ-4C R/B 2.9 16:08:19 10° NW 16:15:12 71° NE 16:23:26 10° SE
Cosmos 1980 Rocket 2.1 16:13:06 10° NNW 16:18:48 72° ENE 16:24:26 10° SE
Cosmos 468 Rocket 4.0 16:14:11 10° SSW 16:19:20 79° ESE 16:24:35 10° NNE
PSLV R/B 4.2 16:16:27 10° SE 16:19:53 37° ENE 16:23:23 10° N
Meteor 2-21 4.4 16:13:56 10° N 16:19:59 60° ENE 16:25:57 10° SSE
NOAA 12 4.2 16:16:59 10° SSE 16:22:19 83° WSW 16:27:41 10° NNW
COSMO-SKYMED 1 4.1 16:22:41 14° ENE 16:24:20 17° E 16:27:13 10° SE
Cosmos 1627 Rocket 4.4 16:18:28 10° N 16:24:40 71° ENE 16:30:46 10° SSE
Cosmos 1898 Rocket 4.2 16:19:29 10° NNW 16:24:40 60° WSW 16:29:47 10° S
ATLAS CENTAUR R/B 3.1 16:15:36 10° SW 16:25:25 61° SE 16:28:48 16° ENE
Cosmos 2369 3.8 16:19:48 10° NNW 16:25:35 86° WSW 16:31:19 10° SSE
Meteor PRIRODA 4.2 16:22:39 10° S 16:26:15 62° WSW 16:29:52 10° NNW
Cosmos 1633 Rocket 3.6 16:24:25 10° N 16:28:28 35° ENE 16:32:29 10° SE
Cosmos 1933 3.3 16:24:32 10° S 16:28:33 69° E 16:32:35 10° NNE
USA 305 3.0 16:25:12 10° WNW 16:29:26 62° N 16:32:38 17° E
Cosmos 2279 Rocket 4.5 16:24:56 10° SSE 16:30:33 37° E 16:36:10 10° NNE
NOSS 2-2 (C) 4.5 16:25:39 10° NW 16:30:36 77° SW 16:37:36 10° SE
FengYun 1-2 T 4.3 16:25:18 10° SSE 16:30:53 84° WSW 16:36:28 10° NNW
Cosmos 2034 Rocket 4.2 16:25:08 10° SSW 16:31:17 78° WNW 16:37:30 10° N
CZ-4B R/B 3.4 16:27:32 10° S 16:31:27 59° WSW 16:35:12 10° NNW
Cosmos 1818 3.7 16:26:18 10° NW 16:31:44 57° NE 16:37:06 10° ESE
Cosmos 1812 3.5 16:28:51 10° SSE 16:32:14 30° E 16:34:50 15° NE
CORIOLIS 4.1 16:27:10 10° SSE 16:32:34 77° ENE 16:38:01 10° NNW
SL-16 R/B 2.8 16:27:46 10° NNW 16:32:58 35° NE 16:38:08 10° ESE
Cosmos 2237 Rocket 4.3 16:33:04 10° N 16:33:55 10° N 16:34:46 10° NNE
YAOGAN 1 4.1 16:36:55 17° NE 16:36:55 17° NE 16:39:19 10° NNE
AQUARIUS 4.1 16:32:35 10° SSE 16:37:04 80° ENE 16:41:35 10° NNW
Cosmos 1151 Rocket 3.7 16:33:34 10° SSE 16:37:28 33° E 16:40:57 13° NNE
USA 267 3.5 16:32:04 15° ENE 16:37:33 61° SE 16:44:00 10° SW
Cosmos 2082 Rocket 2.5 16:33:02 10° S 16:38:29 49° ESE 16:43:01 15° NE
Meteor 2-14 Rocket 4.4 16:35:07 10° N 16:41:16 84° E 16:47:21 10° SSE
SMAP 3.2 16:37:16 10° SSE 16:41:55 81° WSW 16:46:37 10° NNW
Meteor 1-14 Rocket 4.3 16:37:00 10° N 16:42:48 63° ENE 16:48:40 10° SSE
Cosmos 2333 Rocket 3.6 16:43:43 10° NNW 16:47:47 19° NNE 16:49:04 18° NE
ARGOS 3.4 16:43:27 10° SE 16:48:32 44° ENE 16:53:38 10° N
MOS 1-B 4.3 16:42:54 10° SSE 16:48:38 69° ENE 16:54:25 10° NNW
Cosmos 2278 3.7 16:43:06 10° NNW 16:48:52 85° ENE 16:54:34 10° SSE
Cosmos 1763 Rocket 3.9 16:44:08 10° SW 16:49:09 61° WNW 16:54:17 10° NNE
Cosmos 2026 Rocket 4.0 16:43:09 10° NNW 16:49:20 83° W 16:55:23 10° S
Cosmos 1634 Rocket 4.0 16:43:44 10° S 16:50:02 76° E 16:56:23 10° NNE
CZ-4B DEB 4.2 16:46:24 10° SSE 16:51:55 88° WSW 16:57:27 10° NNW
GEOS 3 Rocket 4.1 16:49:28 20° E 16:52:32 39° NNE 16:57:19 10° NW
Cosmos 44 Rocket 3.2 16:48:53 10° NW 16:53:52 72° NE 16:58:39 10° SE
SeaSat 1 4.2 16:49:58 10° NNE 16:53:58 25° NW 16:57:57 10° W
SL-16 R/B 4.4 16:53:29 10° N 16:54:12 10° N 16:54:54 10° N
Cosmos 2150 Rocket 4.2 16:50:32 10° NNW 16:55:32 46° ENE 17:00:32 10° SE
Cosmos 1833 Rocket 2.9 16:50:33 10° SW 16:56:10 69° WNW 17:01:21 12° NNE
Cosmos 1666 Rocket 3.4 16:51:47 10° N 16:56:15 75° ENE 17:00:39 10° SSE
MOS 1-B Rocket 4.2 16:51:24 10° NNE 16:57:11 53° E 17:03:44 10° S
Cosmos 841 Rocket 3.4 16:52:16 10° SSW 16:57:26 79° ESE 17:01:45 15° NNE
Okean O Rocket 1.9 16:54:18 10° SE 16:58:33 46° ENE 17:02:49 10° N
Cosmos 1470 Rocket 3.9 16:55:20 10° N 16:59:36 42° ENE 17:03:52 10° SE
Cosmos 1328 Rocket 3.9 16:56:56 10° SSE 17:01:07 42° E 17:03:23 23° NE
USA 306 2.8 16:57:29 10° WNW 17:01:45 70° NNE 17:03:36 32° E
H-2A R/B 1.9 16:57:00 10° SSE 17:02:08 82° ENE 17:07:10 10° NNW
Cosmos 1939 Rocket 4.2 16:59:35 10° S 17:03:30 43° W 17:07:24 10° NNW
Cosmos 2219 Rocket 3.6 17:00:24 10° NNW 17:04:25 19° NNE 17:04:47 19° NE
NOSS 3-4 (A) 4.4 16:58:37 10° NW 17:04:28 34° NNE 17:07:33 24° ENE
NOSS 3-4 (C) 4.5 16:58:43 10° NW 17:04:33 34° NNE 17:07:38 24° ENE
ISS -1.5 17:01:55 10° W 17:04:45 24° SSW 17:07:33 10° SSE
COSMOS 2406 3.4 16:59:34 10° SW 17:05:19 75° WNW 17:10:10 15° NNE
EP 1 4.3 17:03:20 10° SW 17:06:26 82° NW 17:06:51 59° NNE
CZ-2C R/B 2.8 17:02:59 16° NNE 17:06:51 45° E 17:11:46 10° S
ATLAS 2AS CENTAUR R/B 3.9 17:00:13 10° WNW 17:06:56 32° N 17:10:37 21° NE
Meteor 2-21 Rocket 4.5 17:00:57 10° NNW 17:07:06 85° W 17:13:10 10° S
Cosmos 1125 Rocket 3.6 17:02:41 10° NNW 17:07:50 52° ENE 17:12:59 10° SE
Cosmos 1500 4.2 17:06:08 10° NNW 17:09:45 47° W 17:13:20 10° S
SKYMED 2 3.8 17:11:18 33° NE 17:12:47 46° E 17:16:58 10° S
USA 234 3.8 17:06:34 10° SE 17:13:02 59° SW 17:19:29 10° WNW
Sich 1 4.4 17:13:16 10° NNW 17:17:18 40° W 17:21:19 10° SSW
Cosmos 1782 3.5 17:13:45 10° SSW 17:17:39 54° WNW 17:21:36 10° N
Cosmos 1655 Rocket 4.0 17:11:38 10° N 17:17:59 61° ENE 17:24:16 10° SSE
CZ-2D R/B 3.8 17:15:04 10° S 17:18:51 58° W 17:22:37 10° NNW
CZ-4B R/B 3.1 17:15:43 10° SSE 17:21:07 89° E 17:26:29 10° NNW
USA 307 2.8 17:17:07 10° WNW 17:21:23 76° NNE 17:22:25 50° E
Cosmos 2180 Rocket 4.4 17:17:24 10° S 17:23:40 68° E 17:29:54 10° NNE
Meteor 2-6 Rocket 4.1 17:18:13 10° S 17:23:52 66° E 17:28:31 15° NNE
SJ-11-01 4.2 17:20:41 10° SSE 17:25:26 81° ENE 17:30:12 10° NNW
ATLAS 5 CENTAUR R/B 2.0 17:17:47 10° NW 17:25:34 83° NE 17:26:27 49° ESE
deb Chang Zheng 4 3.6 17:26:56 10° SSE 17:31:15 79° WSW 17:35:35 10° NNW
ERBS 3.8 17:28:43 10° WNW 17:30:53 26° NNW 17:30:53 26° NNW
Cosmos 2237 4.3 17:27:40 10° NNW 17:33:18 54° NE 17:34:57 41° ESE
Cosmos 2360 Rocket 2.4 17:31:29 10° NNW 17:36:57 45° NE 17:37:21 44° ENE
Cosmos 540 Rocket 4.5 17:32:29 10° SW 17:37:21 43° WNW 17:41:13 16° N
Lacrosse 5 rocket 1.9 17:33:59 10° WNW 17:37:48 51° SW 17:39:14 34° SSE
Cosmos 1666 4.0 17:35:19 10° NNW 17:38:49 40° W 17:42:19 10° SSW
ATLAS CENTAUR R/B 3.7 17:37:45 10° NW 17:40:36 16° N 17:41:01 16° N
USA 308 2.7 17:39:42 10° WNW 17:44:00 88° NNE 17:44:08 84° E
Cosmos 1515 Rocket 3.9 17:41:19 10° S 17:44:48 50° SSE 17:44:48 50° SSE
Meteor 1-11 Rocket 3.6 17:46:00 10° NNW 17:51:39 88° ENE 17:57:24 10° SSE
Meteor 1-10 Rocket 4.1 17:47:37 10° S 17:53:22 82° E 17:56:15 31° NNE
COSMOS 2428 4.1 17:48:44 10° NNW 17:52:06 24° NNE 17:52:06 24° NNE
COSMOS 2455 3.3 17:47:52 10° SW 17:53:48 57° NW 17:56:40 31° NNE
CZ-4 R/B 3.7 17:59:18 14° N 17:59:18 14° N 17:59:54 10° NNW
Cosmos 2322 Rocket 2.1 17:52:34 10° NNW 17:58:20 87° ENE 18:00:16 44° SSE
Cosmos 1814 Rocket 4.5 17:53:30 10° SW 17:58:38 57° WNW 18:00:57 31° N
Cosmos 921 Rocket 3.3 17:54:32 10° SSW 17:57:55 57° SSW 17:57:55 57° SSW
Cosmos 1570 Rocket 4.3 17:54:31 10° SW 17:59:43 63° WNW 18:01:47 36° N
SL-08 RB Rocket 3.9 17:55:59 10° S 18:00:36 70° WSW 18:05:13 10° NNW
COSMO-SKYMED 1 2.9 17:59:54 47° NNW 18:00:55 63° WNW 18:05:12 10° SSW
CZ-4C R/B 4.2 17:57:01 10° NW 18:03:44 41° WSW 18:11:26 10° S
Cosmos 1356 Rocket 4.1 18:00:51 10° NNW 18:04:07 50° NW 18:04:07 50° NW
USA 305 3.5 18:05:10 10° WNW 18:08:38 54° W 18:08:38 54° W
Meteor 2-15 Rocket 4.3 18:04:17 10° S 18:10:25 88° W 18:14:07 26° N
YAOGAN 1 3.9 18:14:04 31° NNW 18:14:04 31° NNW 18:16:25 10° NNW
Cosmos 2266 Rocket 4.5 18:10:44 10° NNW 18:17:01 61° W 18:23:18 10° S
SL-16 R/B 2.8 18:11:49 10° NW 18:17:22 55° WSW 18:21:04 21° S
Cosmos 2237 Rocket 4.2 18:16:17 10° NNW 18:18:00 16° N 18:18:00 16° N
USA 267 3.3 18:19:25 56° NE 18:20:41 69° NNW 18:27:11 10° W
Cosmos 2082 Rocket 3.4 18:17:27 10° WSW 18:22:44 38° NW 18:24:53 28° N
GEOS 3 Rocket 3.8 18:30:35 66° WSW 18:30:35 66° WSW 18:35:36 10° NW
Cosmos 2333 Rocket 3.2 18:27:33 10° NNW 18:31:05 37° N 18:31:05 37° N
Okean O Rocket 3.8 18:31:27 10° SSW 18:35:06 25° W 18:38:47 10° NW
CZ-2C R/B 4.1 18:44:29 21° NNW 18:47:02 32° WNW 18:51:34 10° SW
Cosmos 2219 Rocket 3.7 18:43:52 10° NNW 18:46:30 28° NNW 18:46:30 28° NNW
ATLAS CENTAUR R/B 4.2 18:51:22 10° W 18:54:28 24° WNW 18:54:28 24° WNW
NOSS 3-4 (A) 4.1 18:49:39 10° NW 18:55:00 58° NNW 18:55:00 58° NNW
NOSS 3-4 (C) 4.1 18:49:45 10° NW 18:55:05 57° NNW 18:55:05 57° NNW
ATLAS 2AS CENTAUR R/B 3.6 18:52:27 10° NW 18:58:02 41° N 18:58:02 41° N
Cosmos 2360 Rocket 3.8 19:15:40 10° NW 19:19:09 31° WNW 19:19:09 31° WNW
Cosmos 2322 Rocket 4.5 19:37:49 10° WNW 19:41:38 19° W 19:42:10 18° WSW
